User: anonymous   Login
Location: Kalberh�ni
(46.4610°N, 7.2453°E)
Time: 20:46:06
(UTC+00:00)
Language:

FENGYUN 1C DEB - Orbit

View from above orbital plane
View from above orbital plane
View from above satellite
View from above satellite

Ground track
Ground track

The orbit data is extracted from the following two-line orbital elements,

1 30621U 99025ANC 22024.56699154  .00000790  00000-0  59709-3 0  9991
2 30621  98.6215  36.2793 0163427 280.3410 206.9794 13.90745733758027
Epoch (UTC): 24 January 2022 13:36:28
Eccentricity: 0.0163427
inclination: 98.6215°
perigee height: 806 km
apogee height: 1045 km
right ascension of ascending node: 36.2793°
argument of perigee: 280.3410°
revolutions per day: 13.90745733
mean anomaly at epoch: 206.9794°
orbit number at epoch: 75802

The dashed part of the orbit path shows where the satellite is in the earth's shadow,  

DLR